TimeEST,TemperatureF,Dew PointF,Humidity,Sea Level PressureIn,VisibilityMPH,Wind Direction,Wind SpeedMPH,Gust SpeedMPH,PrecipitationIn,Events,Conditions,WindDirDegrees,DateUTC
12:56 AM,36.0,36.0,100,30.03,1.5,Calm,Calm,-,0.09,Rain,Rain,0,2013-11-27 05:56:00
1:56 AM,37.0,37.0,100,29.95,1.2,Calm,Calm,-,0.17,Rain,Light Rain,0,2013-11-27 06:56:00
2:03 AM,39.2,39.2,100,29.90,1.2,Calm,Calm,-,0.00,Rain,Light Rain,0,2013-11-27 07:03:00
2:11 AM,42.8,42.8,100,29.89,3.0,ESE,10.4,17.3,0.01,Rain,Light Rain,120,2013-11-27 07:11:00
2:47 AM,46.4,46.4,100,29.84,2.0,East,11.5,-,0.04,Rain,Light Rain,100,2013-11-27 07:47:00
2:56 AM,46.9,46.9,100,29.87,1.8,East,11.5,21.9,0.06,Rain,Rain,100,2013-11-27 07:56:00
3:06 AM,46.4,46.4,100,29.81,2.5,East,12.7,-,0.02,Rain,Light Rain,100,2013-11-27 08:06:00
3:24 AM,48.2,46.4,93,29.78,3.0,ESE,13.8,-,0.04,Rain,Light Rain,110,2013-11-27 08:24:00
3:42 AM,48.2,48.2,100,29.76,2.0,ESE,12.7,-,0.06,Rain,Light Rain,120,2013-11-27 08:42:00
3:56 AM,48.9,48.0,97,29.79,3.0,ESE,10.4,-,0.09,Rain,Rain,110,2013-11-27 08:56:00
4:49 AM,50.0,50.0,100,29.66,2.5,ESE,15.0,21.9,0.07,Rain,Rain,120,2013-11-27 09:49:00
4:56 AM,51.1,50.0,96,29.70,2.5,ESE,13.8,23.0,0.08,Rain,Rain,120,2013-11-27 09:56:00
5:33 AM,51.8,51.8,100,29.60,1.5,ESE,12.7,23.0,0.16,Rain,Heavy Rain,120,2013-11-27 10:33:00
5:56 AM,51.1,51.1,100,29.59,1.8,ESE,13.8,-,0.24,Rain,Rain,110,2013-11-27 10:56:00
6:08 AM,51.8,51.8,100,29.53,2.0,ESE,13.8,21.9,0.01,Rain,Light Rain,110,2013-11-27 11:08:00
6:56 AM,55.9,55.9,100,29.51,2.0,SSE,17.3,27.6,0.08,Rain,Light Rain,150,2013-11-27 11:56:00
7:03 AM,55.4,55.4,100,29.47,2.0,SSE,21.9,32.2,0.01,Rain,Light Rain,150,2013-11-27 12:03:00
7:51 AM,60.8,59.0,94,29.42,1.8,South,18.4,29.9,0.08,Rain,Light Rain,170,2013-11-27 12:51:00
7:56 AM,60.1,60.1,100,29.46,2.5,SSE,19.6,29.9,0.08,Rain,Light Rain,160,2013-11-27 12:56:00
8:00 AM,60.8,60.8,100,29.41,3.0,South,19.6,34.5,0.00,Rain,Light Rain,170,2013-11-27 13:00:00
8:05 AM,60.8,60.8,100,29.41,2.5,South,21.9,34.5,0.01,Rain,Rain,170,2013-11-27 13:05:00
8:38 AM,60.8,60.8,100,29.40,1.8,South,19.6,38.0,0.11,Rain,Rain,170,2013-11-27 13:38:00
8:48 AM,60.8,60.8,100,29.40,0.8,SSE,23.0,33.4,0.19,Rain,Heavy Rain,160,2013-11-27 13:48:00
8:56 AM,60.1,60.1,100,29.42,0.8,SSE,18.4,31.1,0.23,Rain,Light Rain,160,2013-11-27 13:56:00
9:02 AM,60.8,60.8,100,29.37,2.0,South,19.6,27.6,0.00,Rain,Light Rain,170,2013-11-27 14:02:00
9:10 AM,60.8,60.8,100,29.38,2.0,South,19.6,35.7,0.01,Rain,Light Rain,170,2013-11-27 14:10:00
9:19 AM,60.8,60.8,100,29.37,3.0,South,19.6,34.5,0.01,Rain,Light Rain,170,2013-11-27 14:19:00
9:29 AM,60.8,60.8,100,29.36,7.0,South,21.9,33.4,0.01,Rain,Light Rain,180,2013-11-27 14:29:00
9:45 AM,62.6,60.8,94,29.35,2.5,South,17.3,36.8,0.01,Rain,Light Rain,180,2013-11-27 14:45:00
9:51 AM,62.6,60.8,94,29.35,4.0,South,19.6,35.7,0.01,Rain,Light Rain,180,2013-11-27 14:51:00
9:56 AM,62.1,61.0,96,29.39,7.0,South,26.5,38.0,0.01,Rain,Light Rain,170,2013-11-27 14:56:00
10:05 AM,62.6,62.6,100,29.35,10.0,South,24.2,36.8,0.00,,Overcast,180,2013-11-27 15:05:00
10:56 AM,62.1,62.1,100,29.35,4.0,South,16.1,26.5,0.00,Rain,Light Rain,190,2013-11-27 15:56:00
11:42 AM,60.8,60.8,100,29.30,2.5,South,10.4,-,0.03,Rain,Light Rain,170,2013-11-27 16:42:00
11:51 AM,60.8,60.8,100,29.30,3.0,South,15.0,20.7,0.04,Rain,Light Rain,170,2013-11-27 16:51:00
11:56 AM,61.0,61.0,100,29.34,3.0,South,12.7,20.7,0.05,Rain,Rain,170,2013-11-27 16:56:00
12:27 PM,60.8,60.8,100,29.29,2.0,SSE,10.4,-,0.15,Rain,Rain,160,2013-11-27 17:27:00
12:56 PM,61.0,61.0,100,29.31,2.5,SSE,11.5,-,0.21,Rain,Light Rain,160,2013-11-27 17:56:00
1:30 PM,60.8,60.8,100,29.24,2.5,SSE,9.2,-,0.04,Rain,Light Rain,160,2013-11-27 18:30:00
1:37 PM,60.8,60.8,100,29.22,4.0,SSE,6.9,-,0.04,Rain,Light Rain,150,2013-11-27 18:37:00
1:56 PM,61.0,61.0,100,29.25,5.0,SSE,5.8,-,0.05,Rain,Light Rain,160,2013-11-27 18:56:00
2:03 PM,60.8,60.8,100,29.22,7.0,South,5.8,-,0.01,Rain,Light Rain,190,2013-11-27 19:03:00
2:26 PM,60.8,60.8,100,29.20,10.0,South,3.5,-,0.01,,Overcast,180,2013-11-27 19:26:00
2:33 PM,60.8,60.8,100,29.20,5.0,SSW,4.6,-,0.01,,Overcast,200,2013-11-27 19:33:00
2:56 PM,61.0,60.1,97,29.27,5.0,WSW,5.8,-,0.02,Rain,Light Rain,250,2013-11-27 19:56:00
3:00 PM,59.0,59.0,100,29.24,1.0,WNW,18.4,21.9,0.01,Rain,Light Rain,300,2013-11-27 20:00:00
3:33 PM,53.6,-9999,N/A,29.24,3.0,West,8.1,17.3,0.03,Rain,Light Rain,270,2013-11-27 20:33:00
3:56 PM,52.0,-9999,N/A,29.29,3.0,West,5.8,-,0.03,,Overcast,260,2013-11-27 20:56:00
4:56 PM,50.0,50.0,100,29.29,8.0,WNW,3.5,-,0.01,Rain,Light Rain,300,2013-11-27 21:56:00
5:27 PM,48.2,-9999,N/A,29.24,9.0,WNW,6.9,-,0.01,Rain,Light Rain,290,2013-11-27 22:27:00
5:35 PM,48.2,-9999,N/A,29.24,7.0,WNW,6.9,-,0.01,Rain,Light Rain,290,2013-11-27 22:35:00
5:56 PM,46.9,-9999,N/A,29.27,5.0,NW,5.8,-,0.03,Rain,Rain,310,2013-11-27 22:56:00
6:03 PM,46.4,-9999,N/A,29.25,5.0,West,9.2,-,0.00,Rain,Light Rain,270,2013-11-27 23:03:00
6:56 PM,45.0,-9999,N/A,29.26,6.0,NW,8.1,-,0.06,Rain,Light Rain,310,2013-11-27 23:56:00
7:03 PM,44.6,-9999,N/A,29.25,7.0,WNW,8.1,-,0.01,Rain,Light Rain,290,2013-11-28 00:03:00
7:22 PM,44.6,-9999,N/A,29.26,10.0,WNW,11.5,-,0.01,Rain,Light Rain,290,2013-11-28 00:22:00
7:36 PM,42.8,-9999,N/A,29.27,10.0,WNW,18.4,24.2,0.02,Rain,Light Rain,300,2013-11-28 00:36:00
7:56 PM,42.1,-9999,N/A,29.31,9.0,WNW,17.3,25.3,0.02,Rain,Light Rain,300,2013-11-28 00:56:00
8:09 PM,42.8,-9999,N/A,29.30,10.0,WNW,19.6,25.3,0.00,Rain,Light Rain,290,2013-11-28 01:09:00
8:56 PM,39.9,-9999,N/A,29.37,8.0,WNW,16.1,24.2,0.02,Rain,Light Rain,290,2013-11-28 01:56:00
9:56 PM,39.0,-9999,N/A,29.39,10.0,WNW,16.1,24.2,0.00,,Overcast,290,2013-11-28 02:56:00
10:56 PM,37.9,37.9,100,29.43,10.0,West,12.7,17.3,N/A,,Overcast,270,2013-11-28 03:56:00
11:56 PM,36.0,36.0,100,29.49,10.0,West,9.2,19.6,N/A,,Overcast,260,2013-11-28 04:56:00